STORK-3

导读 | 星芒AI

STORK-3 是一颗由英国萨里卫星技术有限公司(SSTL)研制的微小卫星,主要用于技术验证和地球观测任务。该卫星重量约为 120 千克,搭载高分辨率光学成像系统,支持军事和民用领域的图像获取。STORK-3 于 2016 年发射,是 STORK 系列卫星的一部分,旨在为英国国防部提供快速响应的遥感能力。其设计强调灵活性和成本效益,为后续小型卫星任务提供了重要经验。

基本信息
目录编号:
51098
目录名称:
STORK-3
国际标识:
2022-003E
轨道中心:
EARTH
卫星名称:
STORK-3
卫星全名:
--
卫星状态:
已陨落 最后检测时间 2023-08-29
发射日期:
2022-01-13 UTC
国别 :
波兰 (PL)
星等 :
--
轨道信息
数据来源 国际轨道数据
星历时间: 2023-08-27T21:00:40+0800
轨道信息已过期793天
半长轴: 6561.99km
偏心率: 0.0012869
轨道倾角: 44.939°
近地点辐角 215.780°
升交点赤经 148.398°
平近点角 262.906°
近地点: 175.41km
远地点: 192.3km
周期: 88.168分钟
每日圈数: 16.332381
详细信息
使用方式:
暂无